Location: ?????
(30.0857°N, 31.1861°E)
Time: 18:36:40
(UTC+00:00)

Daily predictions for brighter satellites

Satellite Brightness Start Highest point End
(mag) Time Altitude Azimuth Time Altitude Azimuth Time Altitude Azimuth
FALCON 9 R/B 3.4 16:15:22 10° WSW 16:20:19 83° NNW 16:38:47 10° ENE
H-2A R/B 2.0 16:33:53 10° SSE 16:39:05 76° ENE 16:44:08 10° N
Cosmos 1908 4.0 16:36:20 10° SSE 16:39:44 30° E 16:43:08 10° NNE
Atlas Centaur 2 3.2 16:33:17 10° WSW 16:41:44 80° SSE 16:50:06 10° E
ATLAS 5 CENTAUR R/B 2.4 16:39:40 10° SSE 16:42:42 22° ESE 16:45:49 10° ENE
ATLAS CENTAUR R/B 4.3 16:42:39 10° WNW 16:45:50 20° WSW 16:49:08 10° SSW
IRS-1C Rocket 4.1 16:41:12 10° SSE 16:46:28 84° ENE 16:51:46 10° NNW
Meteor 1-16 Rocket 4.3 16:42:23 10° SSE 16:47:27 50° E 16:52:36 10° NNE
SAR-Lupe-1 4.0 16:45:33 10° NNE 16:49:05 61° E 16:52:36 10° S
Cosmos 1953 2.3 16:46:43 10° S 16:50:43 64° E 16:54:43 10° NNE
ATLAS 2AS CENTAUR R/B 4.4 16:49:42 10° SE 16:52:26 12° ESE 16:55:12 10° E
SEDSat Delta rocket 4.0 16:45:51 10° WSW 16:52:32 72° SSE 16:58:39 10° E
Cosmos 2082 Rocket 3.5 16:48:02 10° SW 16:53:28 46° WNW 16:58:54 10° N
Cosmos 1689 Rocket 2.4 16:55:19 10° N 16:58:08 66° WNW 17:00:56 10° SSW
Cosmos 2369 3.7 16:52:54 10° NNW 16:58:37 69° ENE 17:04:16 10° SSE
Cosmos 332 Rocket 4.4 16:54:21 10° NNW 16:59:08 61° WSW 17:03:52 10° S
Lacrosse 5 rocket 1.7 16:57:03 10° S 17:00:36 37° ESE 17:04:21 10° NE
Okean-O 2.7 16:59:34 10° S 17:03:59 85° WSW 17:08:25 10° NNW
Cosmos 2233 Rocket 4.1 16:58:02 10° S 17:04:15 84° W 17:10:34 10° N
Cosmos 1703 3.9 17:09:31 10° NNE 17:13:06 35° E 17:15:53 15° SE
Cosmos 2278 3.9 17:07:49 10° N 17:13:24 53° ENE 17:18:38 11° SE
Aurora 2 Rocket 3.7 17:09:57 10° SW 17:13:37 30° SSE 17:16:35 18° ESE
SJ-6B 4.1 17:12:40 18° E 17:13:45 20° ENE 17:16:33 10° NNE
YAOGAN 1 3.5 17:10:14 10° S 17:14:25 50° W 17:18:37 10° NNW
Cosmos 1346 Rocket 2.8 17:10:57 10° N 17:14:48 58° E 17:18:38 10° SSE
USA 186 2.6 17:16:10 22° ESE 17:17:37 32° ENE 17:20:36 10° N
BREEZE-M DEB (TANK) 4.3 17:16:49 10° WSW 17:19:04 34° NNW 17:22:33 10° NE
Meteor 1-21 Rocket 4.1 17:19:07 10° N 17:24:42 83° E 17:30:13 10° S
Cosmos 1315 Rocket 3.6 17:22:24 10° SSW 17:26:25 56° W 17:30:25 10° N
Lacrosse 4 Rocket 2.6 17:23:00 10° N 17:26:33 24° ENE 17:27:28 23° E
ERS-2 3.8 17:25:29 10° N 17:28:52 37° WNW 17:32:13 10° SW
Okean 1-7 Rocket 3.7 17:26:00 10° N 17:30:33 79° W 17:35:06 10° S
Cosmos 292 Rocket 4.4 17:29:41 10° N 17:34:09 36° ENE 17:35:36 29° ESE
Cosmos 1048 Rocket 4.3 17:30:17 10° SSW 17:35:27 71° WNW 17:40:45 10° N
SL-08 RB Rocket 4.5 17:32:47 10° S 17:37:20 54° W 17:41:54 10° NNW
USA 32 3.9 17:33:13 10° S 17:38:26 82° E 17:43:40 10° N
Cosmos 2034 Rocket 4.3 17:34:27 10° SSE 17:40:11 42° E 17:45:57 10° NNE
Cosmos 2344 4.3 17:33:59 10° SSE 17:40:23 26° ESE 17:46:17 10° ENE
Cosmos 1300 2.6 17:38:24 21° SSE 17:40:47 59° E 17:44:32 10° NNE
CZ-4C R/B 1.6 17:36:25 10° SSW 17:40:53 70° ESE 17:46:03 10° NNE
CSL-04 Rocket 4.1 17:36:10 10° S 17:41:27 63° WSW 17:46:43 10° NNW
Resurs 01 Rocket 3.6 17:43:32 14° NE 17:43:32 14° NE 17:44:57 10° NNE
Cosmos 1626 Rocket 3.4 17:37:59 10° N 17:42:22 74° E 17:45:05 23° SSE
Cosmos 2360 Rocket 4.3 17:41:11 10° NE 17:42:16 11° NE 17:42:16 11° NE
Cosmos 1420 Rocket 4.3 17:41:50 10° NNW 17:46:58 67° WSW 17:51:32 13° S
SL-16 R/B 3.0 17:43:26 10° N 17:48:22 30° ENE 17:49:05 29° ENE
USA 215 4.3 17:45:36 21° ENE 17:48:28 29° NE 17:53:55 10° NNW
Cosmos 1464 Rocket 3.9 17:47:01 10° S 17:53:22 85° E 17:59:43 10° N
OBJECT-B 1.1 17:56:31 56° N 17:56:31 56° N 17:59:08 10° N
Molniya-1 4.1 17:52:43 10° SSW 17:56:23 64° ESE 18:05:14 10° NNE
Cosmos 1452 Rocket 3.4 17:51:42 10° NNW 17:56:59 77° ENE 17:58:57 39° SSE
CZ-2C R/B 2.1 17:54:17 10° W 17:57:26 30° SSW 17:57:26 30° SSW
Cosmos 1980 Rocket 3.0 17:54:57 10° NNW 18:00:20 48° WSW 18:05:09 13° S
MetOp-A 4.3 17:56:14 15° S 18:00:45 70° WSW 18:06:06 10° NNW
OAO 2 Rocket 3.5 17:57:17 10° WNW 18:02:21 66° NNE 18:03:32 50° ENE
IRS-1A Rocket 4.2 18:01:15 43° SE 18:02:56 65° ENE 18:08:26 10° N
CENTAUR R/B 4.0 17:55:30 10° N 18:03:00 34° NE 18:05:31 30° E
Cosmos 1269 Rocket 4.0 18:02:36 49° SE 18:03:25 55° ESE 18:08:35 10° NNE
Lacrosse 5 4.1 18:02:46 10° WNW 18:06:25 20° WSW 18:10:04 10° SSW
Meteor 1-11 4.1 18:01:44 10° N 18:07:33 78° E 18:09:33 42° SSE
Centaur AC-119 3.7 18:06:24 10° WSW 18:07:35 23° SW 18:07:35 23° SW
Nadezhda 4 Rocket 4.1 18:05:21 10° N 18:11:30 52° E 18:12:08 50° ESE
MOS 1 4.1 18:11:26 48° SSE 18:13:04 81° ENE 18:18:43 10° N
Resurs 1-3 3.8 18:13:48 56° NNE 18:13:48 56° NNE 18:17:29 10° N
Ariane Rocket 3.0 18:25:23 64° SSW 18:26:01 74° WSW 18:31:05 10° NNW
ATLAS 5 CENTAUR R/B 4.0 18:24:19 10° W 18:27:08 19° NW 18:30:06 10° N
NOSS 3-4 (A) 3.4 18:23:23 10° SW 18:29:05 73° WNW 18:35:03 10° NNE
NOSS 3-4 (C) 3.4 18:23:25 10° SW 18:29:11 74° WNW 18:35:10 10° NNE
Atlas Centaur 2 2.9 18:23:14 10° W 18:31:51 88° N 18:33:47 58° E
Cosmos 2228 3.8 18:32:31 49° W 18:32:38 50° W 18:36:53 10° N
SEDSat Delta rocket 3.7 18:32:46 10° W 18:39:09 78° N 18:39:09 78° N
Lacrosse 5 rocket 4.0 18:37:06 10° W 18:39:51 18° NW 18:42:43 10° N
Cosmos 2322 Rocket 2.5 18:34:35 10° NNW 18:39:17 57° NNE 18:39:17 57° NNE
BREEZE M DEB (TANK) 4.1 18:25:37 10° NW 18:41:10 48° NNE 18:41:52 46° NE
ATLAS 2AS CENTAUR R/B 2.9 18:34:32 10° SSW 18:42:23 83° ESE 18:50:18 10° NNE
NOSS 3-2 (C) 4.4 18:34:46 10° NNW 18:42:29 51° ENE 18:42:59 50° ENE
ATLAS 3B CENTAUR R/B 4.2 18:41:56 10° SW 19:01:16 55° SSE 19:02:14 55° SSE
Lacrosse 4 Rocket 4.0 19:01:52 10° WNW 19:03:48 18° W 19:03:48 18° W
Resurs 01 Rocket 4.2 19:21:05 19° NW 19:21:05 19° NW 19:22:31 10° NNW
Haruka 4.1 19:06:51 10° W 19:17:30 58° W 19:17:30 58° W
USA 238 DEB 4.1 19:13:28 10° NNW 19:19:55 66° WNW 19:19:55 66° WNW
USA 238 4.1 19:13:34 10° NNW 19:20:00 67° WNW 19:20:00 67° WNW
Cosmos 2360 Rocket 3.8 19:21:19 10° NNW 19:24:03 30° NNW 19:24:03 30° NNW
USA 215 4.0 19:32:56 47° WNW 19:32:56 47° WNW 19:37:33 10° NW
SL-16 R/B 4.0 19:27:33 10° NW 19:31:00 25° W 19:31:00 25° W
CENTAUR R/B 3.8 19:45:44 10° NW 19:52:44 51° W 19:52:44 51° W
Cosmos 2344 4.4 19:47:06 10° SW 19:54:20 42° NW 20:01:26 10° NNE
